CAPE
0 0 0 0 0 27 22 6 0 1 16 28 32 38 18 6 2 4 6 0 5 12 15 12 5 0 3
0 0 0 0 0 2 39 17 26 0 8 21 23 29 28 9 9 4 1 0 0 6 11 9 8 2 2
0 0 0 0 0 0 32 66 32 40 2 0 2 20 17 21 13 14 0 0 0 0 4 6 12 13 10
6 0 0 0 0 0 0 43 35 71 6 0 0 0 3 10 9 10 0 0 0 0 0 0 19 14 16
3 0 0 0 0 0 0 3 21 19 44 2 3 2 2 0 0 0 0 1 0 0 0 0 0 9 7
7 6 0 0 0 0 4 0 10 36 64 27 4 8 1 1 0 0 0 0 0 0 0 0 0 0 0
16 16 8 1 1 0 0 0 0 1 52 21 25 3 7 2 0 0 0 0 0 0 0 0 0 0 0
0 0 3 6 9 8 3 0 0 0 0 5 15 17 9 3 0 0 0 0 0 0 0 0 0 0 0
6 21 17 7 2 4 6 9 0 0 0 4 5 11 15 13 1 0 0 0 0 0 2 0 0 0 0
0 0 6 13 15 17 8 7 7 7 0 1 0 3 0 1 0 0 0 0 0 1 1 0 1 1 2
10 7 7 10 4 2 8 4 6 4 0 0 5 2 0 0 1 1 1 1 1 1 1 1 1 1 2
30 16 6 4 1 2 6 5 9 1 0 0 0 4 5 0 0 0 1 1 1 2 2 3 2 1 1
11 6 0 0 2 12 9 7 2 5 3 13 2 0 4 0 0 0 0 0 1 1 1 1 2 2 2
1 0 1 8 5 6 11 8 6 3 1 4 15 1 0 5 0 0 0 0 0 1 1 1 1 1 1
0 1 6 5 7 7 8 19 9 4 7 0 2 1 0 0 0 0 0 0 0 1 1 2 1 1 1
4 6 4 7 16 9 12 17 13 4 3 4 16 13 1 1 0 0 1 0 0 0 2 2 2 0 0
1 1 6 6 11 9 15 18 19 9 3 3 4 25 17 3 6 0 0 1 2 1 3 2 0 0 0
CIN
0 0 0 0 0 -8 -13 -36 0 -9 -39 -35 -35 -49 -35 -49 -42 -76 -65 0 -6 -8 -9 -12 -8 -1 -52
0 0 0 0 0 0 -13 -14 -9 0 -47 -43 -44 -55 -58 -40 -76 -93 -85 0 -2 -9 -7 -8 -27 -41 -46
0 0 0 0 0 0 0 0 0 -6 -75 0 -23 -62 -73 -63 -64 -87 -24 0 0 0 -25 -33 -35 -23 -21
0 0 0 0 0 0 0 0 0 0 -14 0 0 -29 -47 -79 -61 -86 -7 -45 0 0 0 -8 -47 -28 -14
0 0 0 0 0 0 0 0 -21 0 0 -23 -61 0 0 -22 0 0 -2 -77 0 0 0 -7 0 -68 -40
0 0 0 0 0 0 0 0 -11 -9 0 -1 -9 -31 0 0 0 0 0 0 0 0 0 0 0 0 0
0 0 0 0 -1 0 0 0 0 0 0 -10 -2 -15 -27 0 -3 0 0 0 0 0 0 0 0 0 0
0 0 0 0 0 0 -1 0 0 0 0 0 -13 -15 -61 -36 0 0 0 0 0 0 0 0 0 0 0
-1 0 -1 -1 -1 0 0 0 0 0 0 0 -2 -6 -12 -30 -30 0 0 0 0 0 0 0 0 0 0
0 0 -1 0 0 0 0 0 0 0 0 0 0 -3 0 -19 0 -28 0 0 0 0 0 0 0 0 0
-1 -1 -1 -1 0 -1 0 0 0 0 0 0 -1 0 0 0 0 0 0 0 0 0 0 0 0 0 0
0 -2 -1 -2 -1 -1 -1 -1 0 0 0 0 0 0 -2 0 0 0 0 0 0 0 0 0 0 0 0
0 -1 -2 0 -1 -1 -1 -1 -1 0 0 0 -1 0 0 0 0 0 0 0 0 0 0 0 0 0 0
-1 0 -1 -2 -2 -3 -1 -1 -1 -1 0 -1 0 -1 0 0 0 0 0 0 0 0 0 0 0 0 0
0 0 0 -1 -1 -2 -1 0 -1 0 0 0 -2 -1 0 0 -2 0 0 0 0 0 0 0 0 0 0
0 0 -1 0 -1 -1 -1 0 0 0 0 0 -2 -1 -6 -3 0 0 0 0 0 0 0 0 0 0 0
-2 -1 0 -1 -1 -1 -1 0 0 -1 -1 -1 0 0 0 0 -1 0 0 0 0 0 0 0 0 0 0
Wind_Speed
57 54 53 50 45 41 39 38 39 37 43 40 39 38 37 34 32 30 28 27 25 24 23 22 21 20 19
60 60 56 52 49 48 42 40 40 36 40 40 39 39 39 37 36 34 32 30 29 27 26 25 23 22 20
65 58 59 56 54 50 44 43 41 39 36 40 43 41 41 40 39 37 35 33 32 30 29 28 26 24 23
62 62 59 59 55 55 53 45 45 38 38 38 41 47 43 42 42 41 39 37 35 34 32 31 29 27 25
63 63 63 59 57 56 58 56 55 45 38 38 41 44 47 48 46 44 43 41 38 36 36 34 31 30 28
64 65 66 62 59 56 53 57 52 46 43 44 41 42 44 46 51 48 47 44 41 39 38 37 35 32 30
66 66 66 61 59 60 61 56 53 47 50 53 44 46 42 42 44 49 50 48 47 45 42 40 38 37 34
65 67 64 61 61 61 61 62 64 58 49 55 46 51 43 41 41 44 48 52 50 48 45 44 43 39 38
66 68 67 66 64 62 65 63 69 69 56 52 50 48 43 43 41 42 45 48 52 51 49 47 44 41 42
62 65 66 65 67 67 65 69 67 64 63 49 53 42 41 40 44 43 42 42 46 47 46 47 44 43 42
61 62 63 64 64 64 64 67 71 75 62 50 47 45 47 42 42 45 46 43 43 44 42 43 42 41 44
59 61 64 66 66 66 64 66 65 74 68 58 56 53 47 45 44 39 40 45 46 43 43 43 41 40 38
63 66 66 67 67 66 65 66 68 72 70 65 64 62 50 53 49 41 39 40 42 41 42 42 42 42 41
64 65 65 66 67 67 69 68 70 73 70 69 65 63 60 53 49 45 41 37 37 40 41 37 40 40 40
61 65 66 67 69 68 70 70 73 75 72 68 69 67 64 60 50 47 44 42 36 33 37 37 38 37 34
59 62 66 67 68 68 70 73 76 75 74 69 64 65 60 60 58 50 46 45 37 34 37 39 38 30 28
58 60 63 66 69 71 71 73 76 76 75 69 66 65 68 68 56 50 49 46 38 36 33 35 36 31 27
Wind_Direction
264 267 268 269 272 264 259 255 254 246 246 242 239 237 235 233 233 234 235 240 235 232 229 227 226 220 219
263 263 264 266 268 271 258 258 253 248 245 242 239 237 235 233 234 234 234 236 236 235 232 232 229 226 229
262 263 262 264 265 266 266 254 254 253 243 243 243 239 238 236 234 234 234 234 235 236 236 235 233 233 233
262 261 261 260 262 261 263 257 259 255 251 247 246 245 241 237 235 235 234 235 235 236 237 236 235 235 236
260 259 258 258 258 259 259 262 259 256 252 251 250 247 246 244 242 236 235 235 233 235 238 237 236 236 238
258 257 256 257 257 259 260 256 261 250 251 252 249 250 247 247 244 242 240 237 236 238 240 240 239 237 240
258 257 257 256 257 257 256 257 259 264 256 251 248 247 249 248 246 243 242 241 241 242 243 242 244 246 242
258 258 258 257 256 256 257 258 256 259 262 257 243 249 248 249 245 242 242 243 244 243 243 245 245 244 246
260 257 257 256 254 255 253 254 252 250 255 257 244 245 249 244 247 242 242 245 246 246 246 246 245 246 252
262 258 255 255 252 250 250 249 248 250 248 254 256 241 247 245 244 246 244 244 246 247 246 247 245 249 254
263 259 255 254 251 250 248 247 247 245 247 250 258 251 248 248 246 246 245 247 249 250 246 246 245 245 254
263 259 256 253 251 249 248 247 248 245 248 249 252 257 244 247 247 249 249 247 249 252 251 249 246 245 243
264 260 257 255 252 250 249 248 247 246 246 245 245 248 258 242 244 248 249 252 247 249 251 248 248 251 252
265 263 259 255 251 248 247 245 245 244 244 244 242 243 248 254 244 245 248 252 251 251 251 251 247 247 250
268 262 259 255 251 248 245 244 242 242 242 242 242 243 245 245 249 245 245 248 253 250 243 246 252 250 249
271 264 258 254 251 247 244 242 240 240 240 240 239 239 242 244 246 242 244 246 249 245 246 249 252 250 249
272 265 259 254 250 246 243 240 239 238 238 239 239 235 236 238 240 242 241 243 243 246 245 249 254 251 249